GW0787 Weather Reports


Display with metric or nautical units.
time (UTC)temp
F
wind
direction
speed
MPH
gust
MPH
rain 1hr
in
rain 24hr
in
rain mn
in
humidity
%
barometer
mb
20260507150026 54 56 2.0 11.0 0.00 0.00 0.00 60 1016.6
20260507144523 53 74 3.0 12.0 0.00 0.00 0.00 63 1016.6
20260507143022 49 114 2.0 10.0 0.00 0.00 0.00 73 1016.7
20260507141520 47 95 1.0 7.0 0.00 0.00 0.00 77 1016.7
20260507140021 47 152 0.0 4.0 0.00 0.00 0.00 74 1016.5
20260507134512 48 247 4.0 11.0 0.00 0.00 0.00 72 1016.4
20260507133010 48 195 1.0 8.0 0.00 0.00 0.00 72 1016.2
20260507131516 48 199 2.0 4.0 0.00 0.00 0.00 71 1016.1
20260507130006 50 129 0.0 4.0 0.00 0.00 0.00 68 1016.2
20260507124511 49 120 0.0 5.0 0.00 0.00 0.00 68 1016.3
20260507123003 49 301 0.0 10.0 0.00 0.00 0.00 70 1016.4
20260507121508 50 171 1.0 3.0 0.00 0.00 0.00 66 1016.4
20260507120006 51 118 2.0 8.0 0.00 0.00 0.00 65 1016.5
20260507114610 51 158 3.0 7.0 0.00 0.00 0.00 63 1016.5
20260507113129 51 145 2.0 10.0 0.00 0.00 0.00 63 1016.5
20260507111559 50 154 0.0 3.0 0.00 0.00 0.00 67 1016.5
20260507110055 50 156 0.0 5.0 0.00 0.00 0.00 65 1016.6
20260507104556 50 158 2.0 5.0 0.00 0.00 0.00 65 1016.6
20260507103056 50 143 2.0 4.0 0.00 0.00 0.00 65 1016.7
20260507101552 51 115 4.0 8.0 0.00 0.00 0.00 64 1016.5
20260507100056 51 186 4.0 12.0 0.00 0.00 0.00 64 1016.6
20260507094550 51 162 1.0 6.0 0.00 0.00 0.00 65 1016.5
20260507093051 51 107 2.0 6.0 0.00 0.00 0.00 64 1016.6
20260507091558 52 157 1.0 4.0 0.00 0.00 0.00 64 1016.5
20260507090048 52 214 0.0 9.0 0.00 0.00 0.00 64 1016.5
20260507084550 51 78 2.0 4.0 0.00 0.00 0.00 66 1016.6
20260507083043 51 127 1.0 8.0 0.00 0.00 0.00 67 1016.3
20260507081547 51 123 0.0 4.0 0.00 0.00 0.00 68 1016.3
20260507080043 51 146 2.0 4.0 0.00 0.00 0.00 68 1016.4
20260507074540 52 221 1.0 6.0 0.00 0.00 0.00 64 1016.4
20260507073036 53 233 2.0 8.0 0.00 0.00 0.00 66 1016.3
20260507071533 51 16 1.0 3.0 0.00 0.00 0.00 68 1016.5
20260507070032 51 131 4.0 8.0 0.00 0.00 0.00 68 1016.3
20260507064531 53 197 0.0 2.0 0.00 0.00 0.00 67 1016.4
20260507063032 54 159 1.0 4.0 0.00 0.00 0.00 63 1016.5
20260507061531 55 91 3.0 7.0 0.00 0.00 0.00 59 1016.6
20260507060030 56 127 1.0 8.0 0.00 0.00 0.00 58 1016.5
20260507054530 56 193 6.0 15.0 0.00 0.00 0.00 58 1016.6
20260507053029 55 112 1.0 5.0 0.00 0.00 0.00 60 1016.5
20260507051528 55 312 6.0 11.0 0.00 0.00 0.00 59 1016.7
20260507050031 56 211 4.0 12.0 0.00 0.00 0.00 59 1016.5
20260507044526 56 208 5.0 15.0 0.00 0.00 0.00 59 1016.3
20260507043028 57 206 4.0 9.0 0.00 0.00 0.00 58 1016.4
20260507041524 57 216 4.0 15.0 0.00 0.00 0.00 57 1016.3
20260507040022 57 220 6.0 12.0 0.00 0.00 0.00 57 1016.1
20260507034526 58 222 6.0 15.0 0.00 0.00 0.00 56 1015.8
20260507033019 59 238 2.0 10.0 0.00 0.00 0.00 55 1015.6
20260507031519 59 155 5.0 11.0 0.00 0.00 0.00 54 1015.5
20260507030016 60 241 3.0 14.0 0.00 0.00 0.00 53 1015.1
20260507024519 61 197 4.0 12.0 0.00 0.00 0.00 51 1015.0
20260507023013 63 213 8.0 18.0 0.00 0.00 0.00 48 1014.8
20260507021513 65 253 3.0 7.0 0.00 0.00 0.00 45 1014.7
20260507020018 67 196 0.0 4.0 0.00 0.00 0.00 45 1014.5
20260507014512 66 106 1.0 8.0 0.00 0.00 0.00 45 1014.5
20260507013013 67 39 3.0 9.0 0.00 0.00 0.00 44 1014.4
20260507011512 69 116 4.0 12.0 0.00 0.00 0.00 40 1014.5
20260507010010 70 208 3.0 7.0 0.00 0.00 0.00 39 1014.4
20260507004510 69 203 1.0 10.0 0.00 0.00 0.00 43 1014.2
20260507003006 71 180 5.0 10.0 0.00 0.00 0.00 41 1014.1
20260507001514 71 79 5.0 21.0 0.00 0.00 0.00 41 1013.9
20260507000003 72 141 5.0 11.0 0.00 0.00 0.00 40 1013.6
20260506234503 72 147 5.0 10.0 0.00 0.00 0.00 39 1013.7
20260506233003 72 164 4.0 11.0 0.00 0.00 0.00 41 1013.6
20260506231502 72 146 5.0 15.0 0.00 0.00 0.00 41 1013.7
20260506230001 72 174 6.0 15.0 0.00 0.00 0.00 42 1013.7
20260506224501 72 125 5.0 16.0 0.00 0.00 0.00 43 1013.7
20260506223105 73 161 5.0 13.0 0.00 0.00 0.00 42 1013.6
20260506223002 73 139 5.0 13.0 0.00 0.00 0.00 42 1013.6
20260506221617 74 140 6.0 15.0 0.00 0.00 0.00 40 1013.6
20260506220101 73 139 3.0 10.0 0.00 0.00 0.00 36 1013.7
20260506214600 73 53 3.0 9.0 0.00 0.00 0.00 37 1013.7
20260506213103 73 137 4.0 9.0 0.00 0.00 0.00 34 1013.7
20260506211558 74 153 4.0 12.0 0.00 0.00 0.00 33 1013.8
20260506204558 74 64 1.0 8.0 0.00 0.00 0.00 32 1013.5
20260506203120 74 29 3.0 12.0 0.00 0.00 0.00 33 1013.6
20260506201555 74 207 4.0 23.0 0.00 0.00 0.00 34 1013.6
20260506200058 73 220 1.0 17.0 0.00 0.00 0.00 33 1013.5
20260506194555 74 241 7.0 20.0 0.00 0.00 0.00 31 1013.5
20260506193103 73 213 3.0 9.0 0.00 0.00 0.00 32 1013.4
20260506191553 73 298 6.0 17.0 0.00 0.00 0.00 29 1013.6
20260506190053 73 247 5.0 13.0 0.00 0.00 0.00 31 1013.6
20260506184553 73 4 4.0 17.0 0.00 0.00 0.00 29 1013.5
20260506183053 73 231 7.0 15.0 0.00 0.00 0.00 32 1013.5
20260506181554 73 149 3.0 11.0 0.00 0.00 0.00 36 1013.5
20260506180050 73 56 4.0 8.0 0.00 0.00 0.00 39 1013.4
20260506174544 72 4 4.0 8.0 0.00 0.00 0.00 39 1013.2
20260506173045 70 192 4.0 10.0 0.00 0.00 0.00 45 1013.4
20260506171538 69 73 5.0 11.0 0.00 0.00 0.00 47 1013.2
20260506170043 69 123 8.0 15.0 0.00 0.00 0.00 50 1013.4
20260506164545 67 46 6.0 14.0 0.00 0.00 0.00 50 1013.3
20260506163029 66 47 6.0 13.0 0.00 0.00 0.00 54 1013.6
20260506161525 64 86 4.0 13.0 0.00 0.00 0.00 57 1013.8
20260506160021 64 81 8.0 15.0 0.00 0.00 0.00 57 1013.8
20260506154518 62 77 6.0 14.0 0.00 0.00 0.00 61 1014.0
20260506153013 58 90 2.0 5.0 0.00 0.00 0.00 72 1014.1
20260506151508 55 127 1.0 8.0 0.00 0.00 0.00 82 1014.2